Location: Agendoh
(31.0664°N, 8.9343°W)
Time: 08:52:37
(UTC+00:00)

Genesis I - Pass Details

Date: 06 December 2021
Orbit: 467 x 548 km, 64.5° (Epoch: 24 January)

Event Time Altitude Azimuth Distance (km) Brightness Sun altitude
Exits shadow 05:34:18 73° 226° (SW) 570 3.2 -22.2°
Drops below altitude 10° 05:38:12 10° 159° (SSE) 1,787 6.4 -21.3°
Sets 05:40:22 0° 157° (SSE) 2,664 7.3 -20.9°
